STARLINK-31875, 59674

Orbit data source: Space-Track

STARLINK-31875, 59674 is a payload satellite owned by SpaceX/Seattle (US) in LEO that was launched on Mon, 06 May 2024 UTC via an FALCON 9 launch vehicle from the Air Force Eastern Test Range (AFETR). Payload-class satellites include a variety of spacecraft equipped with specific instruments for various scientific and technological missions. These include communications satellites like Starlink; space stations such as the ISS; scientific satellites like the Hubble; Earth observation satellites from companies like Planet Labs, Umbra, and HawkEye 360; GPS; miniature CubeSats for education and research; and military/defense satellites.

Loading next visibility...
Identifier
59674, 2024-084W
Orbit
LEO
Country
Flag of USUS
Related business
Manufacturer
SpaceX/Seattle
Mission
Operational Commercial Communications
Bus & Motor
STARLINK V2M, Unknown motor
Mass
730 kg wet, ~700 kg dry
Launch date (UTC)
2024-05-06 (2 years ago)
Launch vehicle
FALCON 9
Launch site
Air Force Eastern Test Range (AFETR)
Object type
Payload
Rocket body
Debris
Shape & HBR
Box + 2 Pan, 17.7 m
Radar Cross Section
33.884 m², Large (>1 m²)

Expand to show TLE details & history
Last TLE update: 1 day ago

TLE from 1 day ago
0 STARLINK-31875
1 59674U 24084W   25347.89737472  .00005403  00000-0  20574-3 0  9990
2 59674  42.9995 162.7276 0001235 256.4503 103.6211 15.27577992 91297
Epoch: 2025-12-13T21:32Z
TLE epoch observation values (Epoch: 2025-12-13T21:32:13.175Z)
Latitude
-0.00004°
Longitude
116.85461°
Altitude
483.03 km
Speed
7.626 km/s
True Right ascension
10h 50m 54s
True Declination
0° 00' 00"
Sunlit
Object was in daylight at epoch
Visualization orbit readout
Latitude
Unknown
Longitude
Unknown
Altitude
Unknown
Speed
Unknown
Apparent Right ascension
Unknown
Apparent Declination
Unknown
Sunlit
N/A
Visualization observer readout
Local Sidereal Time
19:41:09
Azimuth
Unknown
Elevation
Unknown
Doppler factor
Unknown
Orbital elements
Apogee altitude
485.848 km
Perigee altitude
484.153 km
Semi-major axis
6,863.137 km
Eccentricity
0.00012
Inclination
42.9995°
RAAN
162.7276°
Arg. of periapsis
256.4503°
True anomaly
103.63485°
Mean anomaly
103.6211°
Eccentric anomaly
103.62798°
Mean motion
3.81732 °/min
Orbital period
94.31 mins
BSTAR
0.00020574
Loading maneuver chart data...
Computing Atmospheric mass density...
Loading historical data...
Loading historical data...
Loading historical data...
Loading historical data...
Loading historical data...
Loading historical data...
Loading historical data...

Documentation

Showing up to 5 results
|